| time (UTC) | temp F | wind direction | speed MPH | gust MPH | rain 1hr in | rain 24hr in | rain mn in | humidity % | barometer mb |
| 20260505170735 | 53 | 309 | 3.0 | 4.0 | 0.00 | 0.00 | 0.00 | 77 | 1012.0 |
| 20260505170236 | 54 | 70 | 0.0 | 5.0 | 0.00 | 0.00 | 0.00 | 75 | 1012.0 |
| 20260505165736 | 54 | 10 | 1.0 | 3.0 | 0.00 | 0.00 | 0.00 | 75 | 1012.0 |
| 20260505165235 | 54 | 312 | 3.0 | 3.0 | 0.00 | 0.00 | 0.00 | 74 | 1012.0 |
| 20260505164735 | 54 | 27 | 1.0 | 5.0 | 0.00 | 0.00 | 0.00 | 71 | 1012.0 |
| 20260505164236 | 54 | 30 | 2.0 | 3.0 | 0.00 | 0.00 | 0.00 | 74 | 1012.0 |
| 20260505163737 | 54 | 0 | 2.0 | 3.0 | 0.00 | 0.00 | 0.00 | 70 | 1012.0 |
| 20260505163235 | 54 | 0 | 2.0 | 5.0 | 0.00 | 0.00 | 0.00 | 70 | 1012.0 |
| 20260505162735 | 54 | 49 | 0.0 | 5.0 | 0.00 | 0.00 | 0.00 | 70 | 1012.0 |
| 20260505162236 | 54 | 256 | 0.0 | 2.0 | 0.00 | 0.00 | 0.00 | 70 | 1012.0 |
| 20260505161736 | 54 | 355 | 2.0 | 3.0 | 0.00 | 0.00 | 0.00 | 71 | 1012.0 |
| 20260505161235 | 54 | 357 | 0.0 | 2.0 | 0.00 | 0.00 | 0.00 | 75 | 1012.0 |
| 20260505160736 | 54 | 30 | 1.0 | 3.0 | 0.00 | 0.00 | 0.00 | 72 | 1012.0 |
| 20260505160236 | 54 | 12 | 1.0 | 4.0 | 0.00 | 0.00 | 0.00 | 76 | 1012.0 |
| 20260505153240 | 53 | 69 | 1.0 | 2.0 | 0.00 | 0.00 | 0.00 | 78 | 1011.0 |
| 20260505152736 | 53 | 201 | 1.0 | 8.0 | 0.00 | 0.00 | 0.00 | 77 | 1011.0 |
| 20260505152235 | 52 | 22 | 5.0 | 5.0 | 0.00 | 0.00 | 0.00 | 77 | 1011.0 |
| 20260505151735 | 52 | 349 | 2.0 | 6.0 | 0.00 | 0.00 | 0.00 | 79 | 1011.0 |
| 20260505151236 | 52 | 336 | 3.0 | 6.0 | 0.00 | 0.00 | 0.00 | 81 | 1011.0 |
| 20260505150735 | 51 | 50 | 5.0 | 9.0 | 0.00 | 0.00 | 0.00 | 78 | 1011.0 |
| 20260505150236 | 51 | 354 | 4.0 | 6.0 | 0.00 | 0.00 | 0.00 | 78 | 1011.0 |
| 20260505140237 | 50 | 299 | 2.0 | 5.0 | 0.00 | 0.00 | 0.00 | 87 | 1010.0 |
| 20260505130236 | 48 | 326 | 2.0 | 7.0 | 0.00 | 0.00 | 0.00 | 90 | 1010.0 |
| 20260505124736 | 49 | 107 | 2.0 | 7.0 | 0.00 | 0.00 | 0.00 | 90 | 1012.0 |
| 20260505124235 | 49 | 288 | 3.0 | 8.0 | 0.00 | 0.00 | 0.00 | 90 | 1012.0 |
| 20260505123739 | 49 | 301 | 4.0 | 9.0 | 0.00 | 0.00 | 0.00 | 89 | 1012.0 |
| 20260505123235 | 50 | 301 | 3.0 | 7.0 | 0.00 | 0.00 | 0.00 | 88 | 1012.0 |
| 20260505122736 | 50 | 346 | 5.0 | 8.0 | 0.00 | 0.00 | 0.00 | 87 | 1011.0 |
| 20260505122235 | 50 | 341 | 3.0 | 7.0 | 0.00 | 0.00 | 0.00 | 86 | 1011.0 |
| 20260505121735 | 50 | 14 | 3.0 | 7.0 | 0.00 | 0.00 | 0.00 | 87 | 1011.0 |
| 20260505121236 | 50 | 292 | 3.0 | 8.0 | 0.00 | 0.00 | 0.00 | 90 | 1011.0 |
| 20260505120735 | 51 | 296 | 5.0 | 7.0 | 0.00 | 0.00 | 0.00 | 89 | 1011.0 |
| 20260505120236 | 51 | 322 | 6.0 | 11.0 | 0.00 | 0.00 | 0.00 | 89 | 1010.0 |
| 20260505115737 | 51 | 310 | 8.0 | 9.0 | 0.00 | 0.00 | 0.00 | 88 | 1011.0 |
| 20260505115236 | 52 | 294 | 6.0 | 8.0 | 0.00 | 0.00 | 0.00 | 86 | 1010.0 |
| 20260505114735 | 53 | 358 | 3.0 | 9.0 | 0.00 | 0.00 | 0.00 | 86 | 1010.0 |
| 20260505114236 | 53 | 342 | 9.0 | 10.0 | 0.00 | 0.00 | 0.00 | 84 | 1010.0 |
| 20260505113735 | 53 | 336 | 4.0 | 5.0 | 0.00 | 0.00 | 0.00 | 83 | 1010.0 |
| 20260505113236 | 53 | 249 | 2.0 | 2.0 | 0.00 | 0.00 | 0.00 | 83 | 1010.0 |
| 20260505112735 | 53 | 300 | 3.0 | 4.0 | 0.00 | 0.00 | 0.00 | 84 | 1009.0 |
| 20260505112235 | 53 | 332 | 2.0 | 4.0 | 0.00 | 0.00 | 0.00 | 85 | 1009.0 |
| 20260505111737 | 54 | 319 | 2.0 | 3.0 | 0.00 | 0.00 | 0.00 | 81 | 1009.0 |
| 20260505111236 | 54 | 311 | 1.0 | 6.0 | 0.00 | 0.00 | 0.00 | 81 | 1009.0 |
| 20260505110735 | 55 | 19 | 7.0 | 7.0 | 0.00 | 0.00 | 0.00 | 81 | 1008.0 |
| 20260505110236 | 55 | 12 | 5.0 | 9.0 | 0.00 | 0.00 | 0.00 | 81 | 1008.0 |
| 20260505101736 | 58 | 340 | 6.0 | 9.0 | 0.00 | 0.00 | 0.00 | 87 | 1008.0 |
| 20260505101235 | 59 | 356 | 3.0 | 6.0 | 0.00 | 0.00 | 0.00 | 87 | 1008.0 |
| 20260505100735 | 59 | 332 | 5.0 | 7.0 | 0.00 | 0.00 | 0.00 | 86 | 1007.0 |
| 20260505100235 | 60 | 339 | 2.0 | 5.0 | 0.00 | 0.00 | 0.00 | 86 | 1007.0 |
| 20260505095736 | 60 | 10 | 3.0 | 5.0 | 0.00 | 0.00 | 0.00 | 84 | 1008.0 |
| 20260505095235 | 60 | 19 | 2.0 | 7.0 | 0.00 | 0.00 | 0.00 | 82 | 1007.0 |
| 20260505094736 | 61 | 332 | 5.0 | 5.0 | 0.00 | 0.00 | 0.00 | 80 | 1007.0 |
| 20260505094235 | 63 | 319 | 5.0 | 9.0 | 0.00 | 0.00 | 0.00 | 72 | 1007.0 |
| 20260505093735 | 65 | 317 | 1.0 | 2.0 | 0.00 | 0.00 | 0.00 | 64 | 1007.0 |
| 20260505093235 | 65 | 94 | 0.0 | 2.0 | 0.00 | 0.00 | 0.00 | 60 | 1006.0 |
| 20260505092735 | 65 | 86 | 2.0 | 3.0 | 0.00 | 0.00 | 0.00 | 59 | 1007.0 |
| 20260505092235 | 65 | 106 | 4.0 | 4.0 | 0.00 | 0.00 | 0.00 | 60 | 1007.0 |
| 20260505091736 | 66 | 108 | 1.0 | 2.0 | 0.00 | 0.00 | 0.00 | 60 | 1007.0 |
| 20260505091236 | 66 | 119 | 1.0 | 3.0 | 0.00 | 0.00 | 0.00 | 59 | 1007.0 |
| 20260505090735 | 66 | 97 | 3.0 | 6.0 | 0.00 | 0.00 | 0.00 | 59 | 1007.0 |
| 20260505090236 | 66 | 124 | 1.0 | 4.0 | 0.00 | 0.00 | 0.00 | 59 | 1007.0 |
| 20260505085735 | 66 | 100 | 3.0 | 5.0 | 0.00 | 0.00 | 0.00 | 59 | 1007.0 |
| 20260505085236 | 66 | 144 | 1.0 | 3.0 | 0.00 | 0.00 | 0.00 | 60 | 1007.0 |
| 20260505084735 | 66 | 117 | 0.0 | 3.0 | 0.00 | 0.00 | 0.00 | 61 | 1007.0 |
| 20260505084235 | 66 | 105 | 3.0 | 3.0 | 0.00 | 0.00 | 0.00 | 61 | 1007.0 |
| 20260505083735 | 66 | 129 | 0.0 | 2.0 | 0.00 | 0.00 | 0.00 | 61 | 1007.0 |
| 20260505083236 | 66 | 160 | 0.0 | 3.0 | 0.00 | 0.00 | 0.00 | 60 | 1006.0 |
| 20260505082736 | 66 | 92 | 2.0 | 3.0 | 0.00 | 0.00 | 0.00 | 60 | 1007.0 |
| 20260505082236 | 66 | 149 | 1.0 | 3.0 | 0.00 | 0.00 | 0.00 | 60 | 1007.0 |
| 20260505081736 | 66 | 104 | 3.0 | 4.0 | 0.00 | 0.00 | 0.00 | 60 | 1007.0 |
| 20260505081236 | 67 | 358 | 0.0 | 2.0 | 0.00 | 0.00 | 0.00 | 59 | 1007.0 |
| 20260505080735 | 67 | 114 | 1.0 | 3.0 | 0.00 | 0.00 | 0.00 | 59 | 1007.0 |
| 20260505080236 | 67 | 60 | 0.0 | 2.0 | 0.00 | 0.00 | 0.00 | 58 | 1007.0 |
| 20260505075736 | 67 | 130 | 0.0 | 3.0 | 0.00 | 0.00 | 0.00 | 58 | 1007.0 |
| 20260505075235 | 67 | 224 | 0.0 | 0.0 | 0.00 | 0.00 | 0.00 | 60 | 1007.0 |
| 20260505074736 | 67 | 195 | 0.0 | 1.0 | 0.00 | 0.00 | 0.00 | 59 | 1007.0 |
| 20260505074235 | 67 | 213 | 0.0 | 1.0 | 0.00 | 0.00 | 0.00 | 58 | 1007.0 |
| 20260505073736 | 67 | 315 | 0.0 | 1.0 | 0.00 | 0.00 | 0.00 | 57 | 1007.0 |
| 20260505073235 | 68 | 250 | 0.0 | 1.0 | 0.00 | 0.00 | 0.00 | 58 | 1007.0 |
| 20260505072736 | 68 | 359 | 2.0 | 3.0 | 0.00 | 0.00 | 0.00 | 56 | 1007.0 |
| 20260505072235 | 68 | 55 | 1.0 | 3.0 | 0.00 | 0.00 | 0.00 | 56 | 1007.0 |
| 20260505071735 | 68 | 38 | 3.0 | 5.0 | 0.00 | 0.00 | 0.00 | 56 | 1007.0 |
| 20260505071235 | 68 | 50 | 0.0 | 8.0 | 0.00 | 0.00 | 0.00 | 56 | 1007.0 |
| 20260505070737 | 68 | 354 | 2.0 | 5.0 | 0.00 | 0.00 | 0.00 | 57 | 1007.0 |
| 20260505070235 | 68 | 340 | 6.0 | 7.0 | 0.00 | 0.00 | 0.00 | 58 | 1007.0 |
| 20260505065735 | 69 | 349 | 2.0 | 4.0 | 0.00 | 0.00 | 0.00 | 59 | 1007.0 |
| 20260505065236 | 69 | 249 | 1.0 | 2.0 | 0.00 | 0.00 | 0.00 | 57 | 1006.0 |
| 20260505064735 | 69 | 268 | 2.0 | 3.0 | 0.00 | 0.00 | 0.00 | 56 | 1006.0 |
| 20260505064236 | 69 | 236 | 1.0 | 4.0 | 0.00 | 0.00 | 0.00 | 56 | 1006.0 |
| 20260505063735 | 69 | 243 | 1.0 | 2.0 | 0.00 | 0.00 | 0.00 | 56 | 1006.0 |
| 20260505063238 | 69 | 274 | 1.0 | 3.0 | 0.00 | 0.00 | 0.00 | 56 | 1006.0 |
| 20260505062735 | 69 | 211 | 0.0 | 2.0 | 0.00 | 0.00 | 0.00 | 56 | 1006.0 |
| 20260505062236 | 70 | 246 | 1.0 | 2.0 | 0.00 | 0.00 | 0.00 | 56 | 1006.0 |
| 20260505061735 | 70 | 223 | 0.0 | 2.0 | 0.00 | 0.00 | 0.00 | 56 | 1006.0 |
| 20260505061235 | 70 | 259 | 3.0 | 5.0 | 0.00 | 0.00 | 0.00 | 56 | 1006.0 |
| 20260505060735 | 70 | 219 | 1.0 | 2.0 | 0.00 | 0.00 | 0.00 | 56 | 1006.0 |
| 20260505060235 | 70 | 236 | 0.0 | 6.0 | 0.00 | 0.00 | 0.00 | 55 | 1006.0 |
| 20260505055735 | 70 | 261 | 2.0 | 5.0 | 0.00 | 0.00 | 0.00 | 55 | 1006.0 |
| 20260505055235 | 70 | 300 | 1.0 | 3.0 | 0.00 | 0.00 | 0.00 | 55 | 1006.0 |
| 20260505054735 | 70 | 259 | 2.0 | 3.0 | 0.00 | 0.00 | 0.00 | 55 | 1006.0 |
| 20260505054236 | 70 | 227 | 2.0 | 3.0 | 0.00 | 0.00 | 0.00 | 54 | 1006.0 |
| 20260505053736 | 71 | 312 | 2.0 | 4.0 | 0.00 | 0.00 | 0.00 | 54 | 1006.0 |
| 20260505053235 | 71 | 283 | 2.0 | 6.0 | 0.00 | 0.00 | 0.00 | 54 | 1005.0 |
| 20260505052736 | 71 | 229 | 3.0 | 8.0 | 0.00 | 0.00 | 0.00 | 54 | 1005.0 |
| 20260505052235 | 71 | 250 | 3.0 | 3.0 | 0.00 | 0.00 | 0.00 | 54 | 1005.0 |
| 20260505051735 | 71 | 241 | 2.0 | 4.0 | 0.00 | 0.00 | 0.00 | 54 | 1005.0 |
| 20260505051235 | 71 | 177 | 0.0 | 5.0 | 0.00 | 0.00 | 0.00 | 54 | 1005.0 |
| 20260505050736 | 71 | 240 | 0.0 | 4.0 | 0.00 | 0.00 | 0.00 | 54 | 1005.0 |
| 20260505050235 | 71 | 193 | 1.0 | 3.0 | 0.00 | 0.00 | 0.00 | 54 | 1005.0 |
| 20260505041735 | 71 | 257 | 1.0 | 3.0 | 0.00 | 0.00 | 0.00 | 54 | 1005.0 |
| 20260505041235 | 71 | 235 | 1.0 | 2.0 | 0.00 | 0.00 | 0.00 | 54 | 1005.0 |
| 20260505040735 | 71 | 251 | 0.0 | 2.0 | 0.00 | 0.00 | 0.00 | 54 | 1005.0 |
| 20260505040235 | 71 | 246 | 3.0 | 3.0 | 0.00 | 0.00 | 0.00 | 53 | 1005.0 |
| 20260505035735 | 71 | 249 | 2.0 | 3.0 | 0.00 | 0.00 | 0.00 | 54 | 1005.0 |
| 20260505035235 | 71 | 227 | 0.0 | 1.0 | 0.00 | 0.00 | 0.00 | 54 | 1005.0 |
| 20260505034735 | 72 | 221 | 0.0 | 3.0 | 0.00 | 0.00 | 0.00 | 53 | 1005.0 |
| 20260505034236 | 72 | 219 | 2.0 | 2.0 | 0.00 | 0.00 | 0.00 | 52 | 1005.0 |
| 20260505033735 | 72 | 245 | 0.0 | 3.0 | 0.00 | 0.00 | 0.00 | 51 | 1006.0 |
| 20260505033235 | 73 | 202 | 0.0 | 2.0 | 0.00 | 0.00 | 0.00 | 51 | 1006.0 |
| 20260505032735 | 73 | 241 | 1.0 | 3.0 | 0.00 | 0.00 | 0.00 | 50 | 1006.0 |
| 20260505032235 | 73 | 278 | 2.0 | 4.0 | 0.00 | 0.00 | 0.00 | 50 | 1006.0 |
| 20260505031735 | 73 | 228 | 2.0 | 3.0 | 0.00 | 0.00 | 0.00 | 50 | 1006.0 |
| 20260505031235 | 73 | 224 | 0.0 | 3.0 | 0.00 | 0.00 | 0.00 | 50 | 1006.0 |
| 20260505030735 | 73 | 245 | 2.0 | 4.0 | 0.00 | 0.00 | 0.00 | 50 | 1005.0 |
| 20260505030235 | 73 | 227 | 2.0 | 3.0 | 0.00 | 0.00 | 0.00 | 49 | 1005.0 |
| 20260505025735 | 73 | 215 | 2.0 | 2.0 | 0.00 | 0.00 | 0.00 | 49 | 1005.0 |
| 20260505025235 | 73 | 257 | 2.0 | 4.0 | 0.00 | 0.00 | 0.00 | 49 | 1005.0 |
| 20260505024735 | 73 | 246 | 2.0 | 3.0 | 0.00 | 0.00 | 0.00 | 49 | 1005.0 |
| 20260505024235 | 73 | 206 | 1.0 | 2.0 | 0.00 | 0.00 | 0.00 | 49 | 1005.0 |
| 20260505023735 | 73 | 171 | 1.0 | 3.0 | 0.00 | 0.00 | 0.00 | 49 | 1005.0 |
| 20260505023235 | 73 | 238 | 2.0 | 2.0 | 0.00 | 0.00 | 0.00 | 50 | 1005.0 |
| 20260505022736 | 73 | 217 | 0.0 | 2.0 | 0.00 | 0.00 | 0.00 | 49 | 1005.0 |
| 20260505022236 | 73 | 230 | 0.0 | 4.0 | 0.00 | 0.00 | 0.00 | 49 | 1005.0 |
| 20260505021735 | 73 | 265 | 1.0 | 3.0 | 0.00 | 0.00 | 0.00 | 49 | 1005.0 |
| 20260505021235 | 73 | 240 | 1.0 | 3.0 | 0.00 | 0.00 | 0.00 | 50 | 1004.0 |
| 20260505020735 | 73 | 254 | 3.0 | 3.0 | 0.00 | 0.00 | 0.00 | 50 | 1004.0 |
| 20260505020235 | 73 | 206 | 1.0 | 2.0 | 0.00 | 0.00 | 0.00 | 51 | 1004.0 |
| 20260505015736 | 73 | 224 | 0.0 | 2.0 | 0.00 | 0.00 | 0.00 | 50 | 1004.0 |
| 20260505015235 | 73 | 219 | 0.0 | 2.0 | 0.00 | 0.00 | 0.00 | 50 | 1004.0 |
| 20260505014735 | 73 | 218 | 2.0 | 2.0 | 0.00 | 0.00 | 0.00 | 50 | 1004.0 |
| 20260505014235 | 74 | 211 | 0.0 | 2.0 | 0.00 | 0.00 | 0.00 | 50 | 1004.0 |
| 20260505013736 | 74 | 212 | 0.0 | 1.0 | 0.00 | 0.00 | 0.00 | 49 | 1004.0 |
| 20260505013235 | 74 | 221 | 0.0 | 1.0 | 0.00 | 0.00 | 0.00 | 48 | 1004.0 |
| 20260505012737 | 75 | 214 | 1.0 | 2.0 | 0.00 | 0.00 | 0.00 | 48 | 1004.0 |
| 20260505012235 | 75 | 251 | 0.0 | 2.0 | 0.00 | 0.00 | 0.00 | 48 | 1004.0 |
| 20260505011735 | 75 | 235 | 1.0 | 3.0 | 0.00 | 0.00 | 0.00 | 47 | 1004.0 |
| 20260505011235 | 75 | 216 | 1.0 | 3.0 | 0.00 | 0.00 | 0.00 | 47 | 1004.0 |
| 20260505010736 | 75 | 249 | 3.0 | 3.0 | 0.00 | 0.00 | 0.00 | 46 | 1004.0 |
| 20260505010235 | 76 | 282 | 2.0 | 2.0 | 0.00 | 0.00 | 0.00 | 46 | 1004.0 |
| 20260505005735 | 76 | 255 | 0.0 | 2.0 | 0.00 | 0.00 | 0.00 | 46 | 1004.0 |
| 20260505005236 | 76 | 207 | 1.0 | 3.0 | 0.00 | 0.00 | 0.00 | 46 | 1004.0 |
| 20260505004738 | 76 | 247 | 3.0 | 3.0 | 0.00 | 0.00 | 0.00 | 46 | 1004.0 |
| 20260505004235 | 76 | 186 | 1.0 | 2.0 | 0.00 | 0.00 | 0.00 | 46 | 1003.0 |
| 20260505003735 | 77 | 240 | 1.0 | 2.0 | 0.00 | 0.00 | 0.00 | 46 | 1003.0 |
| 20260505003235 | 77 | 244 | 2.0 | 2.0 | 0.00 | 0.00 | 0.00 | 46 | 1003.0 |
| 20260505002735 | 77 | 262 | 0.0 | 2.0 | 0.00 | 0.00 | 0.00 | 46 | 1003.0 |
| 20260505002235 | 77 | 205 | 1.0 | 3.0 | 0.00 | 0.00 | 0.00 | 46 | 1003.0 |
| 20260505001737 | 78 | 246 | 0.0 | 2.0 | 0.00 | 0.00 | 0.00 | 45 | 1004.0 |
| 20260505001236 | 78 | 229 | 1.0 | 2.0 | 0.00 | 0.00 | 0.00 | 45 | 1004.0 |
| 20260505000735 | 78 | 223 | 0.0 | 3.0 | 0.00 | 0.00 | 0.00 | 45 | 1003.0 |
| 20260505000236 | 78 | 234 | 1.0 | 5.0 | 0.00 | 0.00 | 0.00 | 45 | 1004.0 |
| 20260504235735 | 78 | 225 | 2.0 | 3.0 | 0.00 | 0.00 | 0.00 | 45 | 1004.0 |
| 20260504235235 | 79 | 207 | 2.0 | 3.0 | 0.00 | 0.00 | 0.00 | 44 | 1003.0 |
| 20260504234735 | 79 | 208 | 2.0 | 3.0 | 0.00 | 0.00 | 0.00 | 44 | 1003.0 |
| 20260504234236 | 79 | 253 | 4.0 | 4.0 | 0.00 | 0.00 | 0.00 | 44 | 1004.0 |
| 20260504233735 | 79 | 234 | 2.0 | 3.0 | 0.00 | 0.00 | 0.00 | 44 | 1003.0 |
| 20260504233235 | 80 | 283 | 1.0 | 3.0 | 0.00 | 0.00 | 0.00 | 44 | 1003.0 |
| 20260504232735 | 80 | 249 | 3.0 | 4.0 | 0.00 | 0.00 | 0.00 | 44 | 1004.0 |
| 20260504232235 | 80 | 235 | 2.0 | 3.0 | 0.00 | 0.00 | 0.00 | 44 | 1004.0 |
| 20260504231735 | 80 | 280 | 2.0 | 4.0 | 0.00 | 0.00 | 0.00 | 44 | 1004.0 |
| 20260504231235 | 80 | 251 | 2.0 | 2.0 | 0.00 | 0.00 | 0.00 | 45 | 1004.0 |
| 20260504230735 | 80 | 257 | 2.0 | 3.0 | 0.00 | 0.00 | 0.00 | 45 | 1004.0 |
| 20260504230235 | 80 | 245 | 2.0 | 5.0 | 0.00 | 0.00 | 0.00 | 45 | 1004.0 |
| 20260504225735 | 79 | 263 | 2.0 | 6.0 | 0.00 | 0.00 | 0.00 | 49 | 1004.0 |
| 20260504225235 | 77 | 211 | 2.0 | 3.0 | 0.00 | 0.00 | 0.00 | 52 | 1004.0 |
| 20260504224735 | 77 | 189 | 0.0 | 2.0 | 0.00 | 0.00 | 0.00 | 54 | 1004.0 |
| 20260504224235 | 76 | 230 | 1.0 | 2.0 | 0.00 | 0.00 | 0.00 | 55 | 1004.0 |
| 20260504223736 | 76 | 229 | 0.0 | 1.0 | 0.00 | 0.00 | 0.00 | 56 | 1004.0 |
| 20260504223236 | 77 | 222 | 1.0 | 2.0 | 0.00 | 0.00 | 0.00 | 55 | 1004.0 |
| 20260504222736 | 77 | 89 | 0.0 | 2.0 | 0.00 | 0.00 | 0.00 | 54 | 1004.0 |
| 20260504222236 | 77 | 228 | 0.0 | 1.0 | 0.00 | 0.00 | 0.00 | 53 | 1004.0 |
| 20260504221735 | 77 | 235 | 1.0 | 2.0 | 0.00 | 0.00 | 0.00 | 53 | 1004.0 |
| 20260504221235 | 77 | 246 | 0.0 | 2.0 | 0.00 | 0.00 | 0.00 | 53 | 1005.0 |
| 20260504220736 | 77 | 138 | 1.0 | 2.0 | 0.00 | 0.00 | 0.00 | 52 | 1005.0 |
| 20260504220235 | 77 | 200 | 0.0 | 2.0 | 0.00 | 0.00 | 0.00 | 51 | 1005.0 |
| 20260504215736 | 77 | 219 | 2.0 | 2.0 | 0.00 | 0.00 | 0.00 | 51 | 1005.0 |
| 20260504215235 | 78 | 230 | 0.0 | 2.0 | 0.00 | 0.00 | 0.00 | 52 | 1004.0 |
| 20260504214736 | 77 | 202 | 1.0 | 2.0 | 0.00 | 0.00 | 0.00 | 54 | 1004.0 |
| 20260504214236 | 77 | 229 | 1.0 | 3.0 | 0.00 | 0.00 | 0.00 | 53 | 1005.0 |
| 20260504213735 | 77 | 224 | 0.0 | 3.0 | 0.00 | 0.00 | 0.00 | 54 | 1005.0 |
| 20260504213236 | 77 | 206 | 2.0 | 3.0 | 0.00 | 0.00 | 0.00 | 54 | 1005.0 |
| 20260504212735 | 75 | 219 | 1.0 | 2.0 | 0.00 | 0.00 | 0.00 | 57 | 1005.0 |
| 20260504212235 | 74 | 217 | 2.0 | 2.0 | 0.00 | 0.00 | 0.00 | 59 | 1005.0 |
| 20260504211735 | 73 | 212 | 0.0 | 3.0 | 0.00 | 0.00 | 0.00 | 59 | 1005.0 |
| 20260504211235 | 73 | 200 | 1.0 | 3.0 | 0.00 | 0.00 | 0.00 | 60 | 1004.0 |
| 20260504210735 | 75 | 207 | 1.0 | 3.0 | 0.00 | 0.00 | 0.00 | 59 | 1005.0 |
| 20260504210236 | 76 | 218 | 0.0 | 3.0 | 0.00 | 0.00 | 0.00 | 59 | 1005.0 |
| 20260504205735 | 74 | 99 | 2.0 | 4.0 | 0.00 | 0.00 | 0.00 | 62 | 1005.0 |
| 20260504205235 | 72 | 180 | 0.0 | 2.0 | 0.00 | 0.00 | 0.00 | 65 | 1005.0 |
| 20260504204736 | 73 | 122 | 1.0 | 3.0 | 0.00 | 0.00 | 0.00 | 65 | 1005.0 |
| 20260504204237 | 72 | 64 | 3.0 | 4.0 | 0.00 | 0.00 | 0.00 | 67 | 1005.0 |
| 20260504203735 | 72 | 224 | 0.0 | 2.0 | 0.00 | 0.00 | 0.00 | 67 | 1005.0 |
| 20260504203235 | 71 | 168 | 1.0 | 2.0 | 0.00 | 0.00 | 0.00 | 69 | 1005.0 |
| 20260504202735 | 71 | 109 | 2.0 | 4.0 | 0.00 | 0.00 | 0.00 | 69 | 1005.0 |
| 20260504202235 | 70 | 158 | 0.0 | 1.0 | 0.00 | 0.00 | 0.00 | 73 | 1005.0 |
| 20260504201736 | 70 | 203 | 0.0 | 2.0 | 0.00 | 0.00 | 0.00 | 74 | 1005.0 |
| 20260504201235 | 68 | 165 | 0.0 | 6.0 | 0.00 | 0.00 | 0.00 | 76 | 1005.0 |
| 20260504200735 | 66 | 138 | 0.0 | 2.0 | 0.00 | 0.00 | 0.00 | 83 | 1005.0 |
| 20260504200235 | 67 | 211 | 0.0 | 2.0 | 0.00 | 0.00 | 0.00 | 86 | 1005.0 |
| 20260504195736 | 66 | 229 | 0.0 | 2.0 | 0.00 | 0.00 | 0.00 | 86 | 1005.0 |
| 20260504195235 | 65 | 104 | 3.0 | 3.0 | 0.00 | 0.00 | 0.00 | 88 | 1005.0 |
| 20260504194735 | 65 | 128 | 0.0 | 2.0 | 0.00 | 0.00 | 0.00 | 89 | 1005.0 |
| 20260504194235 | 65 | 224 | 0.0 | 1.0 | 0.00 | 0.00 | 0.00 | 90 | 1006.0 |
| 20260504193736 | 64 | 227 | 0.0 | 1.0 | 0.00 | 0.00 | 0.00 | 91 | 1006.0 |
| 20260504193236 | 63 | 175 | 1.0 | 1.0 | 0.00 | 0.00 | 0.00 | 92 | 1006.0 |
| 20260504192735 | 62 | 142 | 0.0 | 0.0 | 0.00 | 0.00 | 0.00 | 92 | 1006.0 |
| 20260504192236 | 62 | 307 | 1.0 | 2.0 | 0.00 | 0.00 | 0.00 | 91 | 1006.0 |
| 20260504191735 | 62 | 177 | 0.0 | 2.0 | 0.00 | 0.00 | 0.00 | 90 | 1005.0 |
| 20260504191235 | 62 | 117 | 0.0 | 3.0 | 0.00 | 0.00 | 0.00 | 91 | 1006.0 |
| 20260504190736 | 61 | 148 | 0.0 | 1.0 | 0.00 | 0.00 | 0.00 | 91 | 1007.0 |
| 20260504190236 | 61 | 110 | 0.0 | 2.0 | 0.00 | 0.00 | 0.00 | 91 | 1007.0 |
| 20260504185735 | 61 | 56 | 0.0 | 2.0 | 0.00 | 0.00 | 0.00 | 90 | 1007.0 |
| 20260504185235 | 61 | 269 | 0.0 | 2.0 | 0.00 | 0.00 | 0.00 | 89 | 1007.0 |
| 20260504184737 | 61 | 230 | 0.0 | 1.0 | 0.00 | 0.00 | 0.00 | 89 | 1007.0 |
| 20260504184236 | 62 | 345 | 2.0 | 2.0 | 0.00 | 0.00 | 0.00 | 87 | 1007.0 |
| 20260504183736 | 62 | 129 | 2.0 | 4.0 | 0.00 | 0.00 | 0.00 | 84 | 1006.0 |
| 20260504182803 | 64 | 147 | 2.0 | 4.0 | 0.00 | 0.00 | 0.00 | 77 | 1007.0 |
| 20260504182236 | 66 | 103 | 2.0 | 3.0 | 0.00 | 0.00 | 0.00 | 69 | 1008.0 |
| 20260504181736 | 66 | 2 | 2.0 | 4.0 | 0.00 | 0.00 | 0.00 | 65 | 1007.0 |
| 20260504181236 | 66 | 91 | 1.0 | 3.0 | 0.00 | 0.00 | 0.00 | 66 | 1008.0 |
| 20260504180736 | 66 | 75 | 0.0 | 3.0 | 0.00 | 0.00 | 0.00 | 66 | 1007.0 |
| 20260504180235 | 66 | 89 | 0.0 | 1.0 | 0.00 | 0.00 | 0.00 | 69 | 1007.0 |
| 20260504175735 | 65 | 101 | 1.0 | 2.0 | 0.00 | 0.00 | 0.00 | 69 | 1007.0 |
| 20260504175236 | 64 | 89 | 0.0 | 2.0 | 0.00 | 0.00 | 0.00 | 71 | 1007.0 |
| 20260504174736 | 64 | 219 | 0.0 | 1.0 | 0.00 | 0.00 | 0.00 | 71 | 1007.0 |
| 20260504174236 | 64 | 174 | 0.0 | 2.0 | 0.00 | 0.00 | 0.00 | 73 | 1007.0 |
| 20260504173313 | 64 | 212 | 0.0 | 2.0 | 0.00 | 0.00 | 0.00 | 76 | 1007.0 |
| 20260504172736 | 64 | 105 | 0.0 | 2.0 | 0.00 | 0.00 | 0.00 | 75 | 1007.0 |
| 20260504172237 | 64 | 297 | 0.0 | 2.0 | 0.00 | 0.00 | 0.00 | 73 | 1007.0 |
| 20260504171736 | 64 | 284 | 0.0 | 1.0 | 0.00 | 0.00 | 0.00 | 71 | 1007.0 |
| 20260504171235 | 65 | 276 | 0.0 | 2.0 | 0.00 | 0.00 | 0.00 | 71 | 1007.0 |